Regional Weather Roundup
Issued by NWS Newport/Morehead, NC

Current Version | Previous Version | Graphics & Text | Print | Product List | Glossary On
Versions: 1 2 3 4 5 6 7 8 9 10 11 12 13 14 15 16 17 18 19 20 21 22 23 24 25 26 27 28 29 30 31 32 33 34 35 36 37 38 39 40 41 42 43 44 45 46 47 48 49 50
000 ASUS42 KMHX 281625 RWRMHX WEATHER ROUNDUP FOR EASTERN NORTH CAROLINA NATIONAL WEATHER SERVICE NEWPORT/MOREHEAD CITY NC 1200 PM EDT FRI AUG 28 2015 NOTE: "FAIR" INDICATES FEW OR NO CLOUDS BELOW 12,000 FEET WITH NO SIGNIFICANT WEATHER AND/OR OBSTRUCTIONS TO VISIBILITY NCZ015>017-031-032-045>047-102-103-281700- NORTH COAST CITY SKY/WX TMP DP RH WIND PRES REMARKS EDENTON MOSUNNY 81 63 54 NE12 30.19S ELIZABETH CITY MOSUNNY 82 62 50 N15 30.19R KITTY HAWK CLOUDY 80 63 55 N5G16 30.17S MANTEO CLOUDY 79 64 59 NE14 30.18S $$ NCZ045>047-081-094-103-104-281700- CENTRAL COAST CITY SKY/WX TMP DP RH WIND PRES REMARKS FRISCO MOSUNNY 82 67 60 NE10G18 30.15R SWANQUARTER NOT AVBL $$ NCZ095-097-098-100-101-281700- SOUTHERN COAST CITY SKY/WX TMP DP RH WIND PRES REMARKS BEAUFORT SUNNY 80 69 69 NE14G23 30.15R CEDAR ISLAND NOT AVBL JACKSONVILLE PTSUNNY 82 63 52 NE10 30.16R PINEY ISLAND SUNNY N/A N/A N/A NE15G24 30.16R WILMINGTON MOSUNNY 83 66 56 E10 30.15S $$ NCZ011>013-027>030-043-044-078>080-089-090>093-098-281700- COASTAL PLAIN CITY SKY/WX TMP DP RH WIND PRES REMARKS AHOSKIE SUNNY 80 57 46 N12 30.21S CLINTON PTSUNNY 81 64 56 E5 30.19S ELIZABETHTOWN PTSUNNY 80 63 55 N3 30.18S GOLDSBORO MOSUNNY 81 62 52 NE9 30.19R GREENVILLE MOSUNNY 81 61 50 E7 30.20S HAVELOCK SUNNY 84 63 49 NE13 30.17R KENANSVILLE PTSUNNY 78 62 56 N9 30.20S KINSTON PTSUNNY 81 63 54 NE12G17 30.20R NEW BERN MOSUNNY 81 64 56 NE12 30.18R RICHLANDS PTSUNNY 81 63 54 N9 30.17S ROCKY MOUNT SUNNY 84 57 39 N13 30.21S WASHINGTON MOSUNNY 79 64 60 NE9 30.19S WHITEVILLE PTSUNNY 78 64 61 NE7 30.16S $$ AMZ130-135-150-152-154-156-158-170-250-252-270-ANZ085-086-088-633-658-670-281700- MARINE OBSERVATIONS STATION/POSITION TIME TEMP WIND PRES WAVE SWELL AIR SEA DIR/SP/G HT/PER HT/PER (UTC) (F) (DEG/KT/KT) (MB) (FT/S) (FT/S) CHESAPEAKE LIGHT 1600 75 20/ 14/ 15 1023.1 64 E VA BEACH 1550 78 79 30/ 12/ 16 1021.5 4/ 8 3/ 8 DUCK 1600 76 78 20/ 15/ 17 1021.5 2 E DUCK 1511 78 N/A 4/ 5 2/11 OREGON INLET 1600 79 75 20/ 13/ 18 1021.6 13E OREGON INLT 1600 78 N/A 5/ 9 2/11 HATTERAS CG 1600 79 79 20/ 15/ 21 1020.8 DIAMOND BUOY 1550 80 82 30/ 16/ 19 1020.3 5/ 5 3/ 8 CAPE LOOKOUT 1600 79 30/ 18/ 22 1020.6 BEAUFORT LAB 1600 80 79 30/ 10/ 16 1020.3 30 SE NEW RVR IN 1508 80 82 60/ 17/ 21 1020.6 30 SE NEW RVR IN 1525 82 N/A 5/ 5 2/11 27 SE WRIGHTSVLE 1600 76 82 60/ 17/ 19 N/A 5 SE WRIGHTSVLE 1508 78 82 60/ 14/ 19 1020.6 225 S CAPE HAT 1550 82 84 180/ 4/ 6 1018.8 3/ 8 3/ 8 41 SE CHARLESTON 1550 81 85 60/ 8/ 8 1019.0 3/ 8 2/ 8 $$

USA.gov is the U.S. government's official web portal to all federal, state and local government web resources and services.